[[{"header":{"parameterUnit":"m.s-1","parameterCategory":1,"la1":30.2991,"la2":30.254,"lo1":-89.0895,"lo2":-89.0444,"dy":0.0017,"dx":0.0017,"nx":28,"ny":28,"refTime":"2024-10-03T09:00:00:Z","depth":0,"parameterNumber":2,"parameterNumberName":"U-component_of_WINDS"},"data":[0,0,0,0,0,0,0,0,0,0,0,0,0,0,0,0,0,0,0,0,0,0,0,0,0,0,0,0,0,0,0,0,0,0,0,0,0,0,0,0,0,0,0,0,0,0,0,0,0,0,0,0,0,0,0,0,0,0,-3.7527,-3.7526,0,-3.748,-3.7479,-3.7479,-3.7387,-3.7385,-3.7383,-3.7381,-3.7336,-3.7336,-3.7337,0,0,0,0,0,0,0,0,0,0,0,0,0,-3.7537,-3.7538,-3.7527,-3.7526,-3.7526,-3.748,-3.7479,-3.7479,-3.7387,-3.7385,-3.7383,-3.7381,-3.7336,-3.7336,-3.7337,0,0,0,0,0,0,0,0,0,0,0,0,0,-3.7516,-3.7538,-3.7527,-3.7474,-3.7469,-3.748,-3.7479,-3.7478,-3.7388,-3.7385,-3.7382,-3.738,-3.7335,-3.7336,-3.7337,-3.7396,0,0,-3.7339,-3.7339,0,0,0,0,0,0,0,0,-3.7517,-3.7516,-3.7483,-3.7478,-3.7472,-3.7436,-3.7466,-3.7451,-3.7388,-3.7419,-3.7381,-3.7378,-3.7372,-3.7369,-3.7366,-3.7394,-3.7392,-3.7339,-3.734,-3.734,-3.734,0,0,0,0,0,0,0,-3.7519,-3.7517,-3.7508,-3.7482,-3.7476,-3.7453,-3.7447,-3.7463,-3.7411,-3.7416,-3.7409,-3.7405,-3.7368,-3.7366,-3.7365,-3.7391,-3.7339,-3.734,-3.734,-3.734,-3.746,-3.7462,0,0,0,0,0,0,-3.7528,-3.7519,-3.751,-3.7507,-3.7488,-3.7455,-3.7448,-3.7451,-3.7411,-3.7402,-3.7407,-3.7401,-3.7366,-3.7364,-3.7363,-3.7425,-3.734,-3.734,-3.7341,-3.7457,-3.746,-3.7463,0,0,0,0,0,0,-3.7528,-3.7528,-3.7512,-3.7511,-3.7507,-3.7458,-3.7461,-3.7451,-3.7449,-3.7404,-3.7394,-3.7414,-3.7364,-3.7362,-3.7387,-3.7422,-3.7341,-3.7341,-3.7454,-3.7458,-3.7462,-3.7553,0,0,0,0,0,0,-3.7529,-3.7529,-3.7551,-3.7512,-3.7508,-3.7537,-3.7463,-3.7452,-3.745,-3.7441,-3.7408,-3.74,-3.7362,-3.7386,-3.7388,-3.7422,-3.7342,-3.745,-3.7456,-3.746,-3.7546,-3.7559,-3.7571,0,0,0,0,0,-3.753,-3.758,-3.7552,-3.7552,-3.7534,-3.7539,-3.7536,-3.749,-3.7453,-3.7474,-3.7445,-3.7401,-3.7419,-3.739,-3.739,-3.7425,-3.7448,-3.7454,-3.746,-3.7541,-3.7557,-3.757,0,0,0,0,0,0,-3.7625,-3.7574,-3.7543,-3.7581,-3.7565,-3.7523,-3.7549,-3.751,-3.7504,-3.7496,-3.744,-3.7434,-3.7466,-3.7449,-3.7417,-3.7478,-3.7426,-3.7433,-3.7487,-3.7502,-3.7514,-3.7516,-3.7343,0,0,0,0,0,-3.765,-3.7658,-3.7613,-3.7652,-3.7645,-3.7599,-3.7599,-3.7565,-3.7546,-3.7539,-3.7512,-3.7496,-3.7497,-3.75,-3.7499,-3.7545,-3.7534,-3.7569,-3.7581,-3.7591,-3.7596,-3.7615,-3.7629,-3.7483,-3.7483,-3.7483,0,0,-3.7702,-3.7675,-3.7684,-3.767,-3.7653,-3.7662,-3.7593,-3.7607,-3.7612,-3.7541,-3.7562,-3.7542,-3.752,-3.7555,-3.7569,-3.7541,-3.7635,-3.7599,-3.7608,-3.7607,-3.7623,-3.7637,-3.7649,-3.7488,-3.7487,-3.7486,0,0,-3.7801,-3.7783,-3.7811,-3.7795,-3.777,-3.7739,-3.7746,-3.771,-3.7692,-3.7712,-3.7658,-3.7665,-3.767,-3.7655,-3.7649,-3.774,-3.7698,-3.7742,-3.7804,-3.7824,-3.7835,-3.7845,-3.7873,-3.7885,-3.7748,-3.7749,-3.7749,0,-3.7869,-3.788,-3.7831,-3.7846,-3.784,-3.7775,-3.7802,-3.779,-3.7766,-3.7764,-3.7734,-3.7736,-3.7717,-3.7745,-3.7767,-3.7766,-3.777,-3.7744,-3.7837,-3.7847,-3.7855,-3.7881,-3.7893,-3.7754,-3.7753,-3.7753,-3.7752,0,-3.7963,-3.7971,-3.7997,-3.7973,-3.7971,-3.7992,-3.7945,-3.7949,-3.7915,-3.7887,-3.7907,-3.7882,-3.7873,-3.7878,-3.7847,-3.7901,-3.7884,-3.7847,-3.7793,-3.7875,-3.7898,-3.7909,-3.7761,-3.7759,-3.7758,-3.7756,0,0,-3.8118,-3.8066,-3.8076,-3.8063,-3.803,-3.8035,-3.8054,-3.8043,-3.8046,-3.8033,-3.8044,-3.8049,-3.8013,-3.8006,-3.7972,-3.799,-3.8058,-3.7949,-3.7948,-3.7967,-3.8113,-3.8138,-3.815,-3.8032,-3.8034,-3.8035,-3.8113,0,-3.8206,-3.8232,-3.8187,-3.8224,-3.8228,-3.8167,-3.8182,-3.8164,-3.8138,-3.8138,-3.8111,-3.8113,-3.8068,-3.8062,-3.8077,-3.8047,-3.8086,-3.8041,-3.804,-3.8041,-3.8043,-3.8164,-3.8191,-3.8265,-3.8122,-3.8124,-3.8125,0,-3.8312,-3.8301,-3.8337,-3.8299,-3.8299,-3.8314,-3.8299,-3.8301,-3.8278,-3.8258,-3.8249,-3.8209,-3.8222,-3.8173,-3.819,-3.8161,-3.8158,-3.8144,-3.8145,-3.814,-3.8085,-3.8158,-3.8288,-3.8298,-3.814,-3.8139,-3.8138,0,-3.8416,-3.8411,-3.843,-3.8422,-3.8379,-3.839,-3.8373,-3.8347,-3.8343,-3.8332,-3.8328,-3.8319,-3.8313,-3.8307,-3.8265,-3.8234,-3.8286,-3.8234,-3.8267,-3.8268,-3.8278,-3.8277,-3.8406,-3.8284,-3.8284,-3.8284,-3.8284,0,-3.8516,-3.854,-3.8476,-3.8487,-3.8511,-3.846,-3.8485,-3.8462,-3.844,-3.8445,-3.8394,-3.84,-3.8346,-3.8347,-3.8314,-3.8331,-3.833,-3.8313,-3.8303,-3.8315,-3.8317,-3.8309,-3.8302,-3.8287,-3.8286,-3.8285,-3.8285,0,-3.8635,-3.8594,-3.861,-3.8568,-3.8558,-3.8577,-3.854,-3.8549,-3.852,-3.8527,-3.8526,-3.848,-3.8478,-3.8436,-3.8426,-3.8404,-3.8432,-3.8415,-3.8439,-3.8432,-3.8466,-3.8461,-3.8591,-3.8603,-3.8478,-3.8479,-3.8481,0,-3.87,-3.8716,-3.8674,-3.8673,-3.8658,-3.8659,-3.8653,-3.8604,-3.8601,-3.8575,-3.8586,-3.8579,-3.857,-3.857,-3.8535,-3.8526,-3.8506,-3.8552,-3.8504,-3.8514,-3.8501,-3.8499,-3.8499,-3.8561,-3.8563,-3.8564,-3.8565,0,-3.8817,-3.8795,-3.8789,-3.8775,-3.877,-3.8757,-3.8742,-3.8744,-3.869,-3.8689,-3.8685,-3.8678,-3.8666,-3.8659,-3.8643,-3.8626,-3.8585,-3.8581,-3.8587,-3.8597,-3.8608,-3.8598,-3.8462,-3.8577,-3.8576,-3.8575,-3.8574,-3.8574,-3.8907,-3.8917,-3.8888,-3.8883,-3.8865,-3.8851,-3.8856,-3.8826,-3.8822,-3.8806,-3.8779,-3.8778,-3.8753,-3.8727,-3.8713,-3.8712,-3.8688,-3.8699,-3.87,-3.8703,-3.8707,-3.8612,-3.871,-3.8709,-3.8709,-3.8709,-3.8708,0,-3.9018,-3.8996,-3.8992,-3.8969,-3.8965,-3.8928,-3.8908,-3.8906,-3.8905,-3.8885,-3.8877,-3.8871,-3.8863,-3.8829,-3.8817,-3.8822,-3.8803,-3.8821,-3.8817,-3.8813,-3.8731,-3.8725,-3.8836,-3.8836,-3.8836,-3.8836,-3.8836,-3.8836,-3.9075,-3.9088,-3.9062,-3.9066,-3.9044,-3.9041,-3.9033,-3.9019,-3.9002,-3.8997,-3.8989,-3.8966,-3.894,-3.8925,-3.8916,-3.8906,-3.8903,-3.8925,-3.8909,-3.8832,-3.882,-3.8808,-3.8801,-3.8926,-3.8926,-3.899,-3.899,-3.8991]},{"header":{"parameterUnit":"m.s-1","parameterCategory":1,"la1":30.2991,"la2":30.254,"lo1":-89.0895,"lo2":-89.0444,"dy":0.0017,"dx":0.0017,"nx":28,"ny":28,"refTime":"2024-10-03T09:00:00:Z","depth":0,"parameterNumber":3,"parameterNumberName":"V-component_of_WINDS"},"data":[0,0,0,0,0,0,0,0,0,0,0,0,0,0,0,0,0,0,0,0,0,0,0,0,0,0,0,0,0,0,0,0,0,0,0,0,0,0,0,0,0,0,0,0,0,0,0,0,0,0,0,0,0,0,0,0,0,0,2.1999,2.1998,0,2.1906,2.1905,2.1904,2.1833,2.1832,2.1832,2.1831,2.1731,2.1729,2.1727,0,0,0,0,0,0,0,0,0,0,0,0,0,2.2114,2.2112,2.2,2.1998,2.1997,2.1907,2.1905,2.1904,2.1833,2.1832,2.1832,2.1831,2.1732,2.1729,2.1727,0,0,0,0,0,0,0,0,0,0,0,0,0,2.2047,2.2111,2.2,2.1951,2.1946,2.1907,2.1905,2.1904,2.1833,2.1832,2.1831,2.1831,2.1733,2.173,2.1726,2.1727,0,0,2.1717,2.1716,0,0,0,0,0,0,0,0,2.2051,2.2043,2.1959,2.1954,2.1948,2.1881,2.1909,2.1844,2.1834,2.1876,2.1831,2.183,2.1781,2.1774,2.1759,2.1722,2.1718,2.1717,2.1715,2.1714,2.1713,0,0,0,0,0,0,0,2.2055,2.2046,2.1962,2.1958,2.1952,2.1933,2.1923,2.1896,2.1835,2.1872,2.1867,2.1857,2.1778,2.1762,2.1756,2.1716,2.1717,2.1714,2.1712,2.1711,2.1679,2.168,0,0,0,0,0,0,2.2068,2.205,2.1965,2.196,2.1998,2.1932,2.192,2.1903,2.1835,2.1824,2.1858,2.1854,2.1768,2.1759,2.1752,2.1749,2.1714,2.1711,2.1709,2.1678,2.1679,2.168,0,0,0,0,0,0,2.2071,2.2061,2.1969,2.2004,2.1991,2.1931,2.1913,2.1902,2.1885,2.1824,2.1813,2.1853,2.1766,2.1756,2.1735,2.1745,2.1709,2.1706,2.1676,2.1678,2.1679,2.1743,0,0,0,0,0,0,2.2074,2.2063,2.2062,2.2004,2.1989,2.1954,2.1913,2.1901,2.1881,2.1875,2.1816,2.1806,2.1765,2.174,2.1732,2.174,2.1704,2.1675,2.1677,2.1679,2.174,2.1747,2.1753,0,0,0,0,0,2.2079,2.2082,2.2062,2.2053,2.1988,2.1955,2.1946,2.19,2.1882,2.1881,2.1843,2.1808,2.1746,2.1738,2.1728,2.1736,2.1674,2.1677,2.1679,2.1737,2.1745,2.1752,0,0,0,0,0,0,2.214,2.2073,2.2051,2.2036,2.2002,2.1943,2.194,2.191,2.1879,2.1874,2.1818,2.1805,2.179,2.176,2.1753,2.1734,2.1706,2.1706,2.1753,2.1761,2.1767,2.1774,2.1701,0,0,0,0,0,2.2152,2.2132,2.2075,2.2067,2.2051,2.1999,2.1983,2.1951,2.1913,2.1897,2.1857,2.182,2.1793,2.1775,2.1746,2.1736,2.1723,2.1737,2.1743,2.1749,2.1749,2.1744,2.175,2.1687,2.1687,2.1687,0,0,2.2176,2.2137,2.2127,2.2078,2.2048,2.2028,2.1987,2.1967,2.1952,2.1894,2.1871,2.1841,2.1797,2.1782,2.1773,2.1757,2.1765,2.1752,2.1757,2.1754,2.1747,2.1753,2.1759,2.1689,2.1688,2.1688,0,0,2.2209,2.2178,2.2169,2.2141,2.2097,2.2063,2.2062,2.2008,2.1986,2.1964,2.1921,2.1902,2.1855,2.1826,2.1805,2.1833,2.18,2.1825,2.1857,2.1853,2.1858,2.1862,2.1873,2.1878,2.1826,2.1826,2.1827,0,2.2243,2.2213,2.2168,2.2152,2.2132,2.2082,2.2073,2.2048,2.1996,2.1983,2.1967,2.191,2.1876,2.1854,2.1862,2.1846,2.1843,2.183,2.1861,2.1865,2.1868,2.1878,2.1882,2.183,2.1829,2.1829,2.1829,0,2.2258,2.2238,2.2236,2.2191,2.2171,2.2158,2.2111,2.2097,2.2068,2.2036,2.2015,2.1974,2.1937,2.193,2.19,2.1906,2.1897,2.1872,2.1842,2.1878,2.1887,2.189,2.1835,2.1833,2.1832,2.1832,0,0,2.2323,2.2257,2.2257,2.2237,2.2187,2.217,2.2157,2.2123,2.2112,2.2079,2.2066,2.2031,2.2008,2.1985,2.1952,2.1949,2.1976,2.1924,2.1922,2.1935,2.198,2.1999,2.2004,2.1955,2.1955,2.1956,2.1984,0,2.2349,2.2322,2.2284,2.227,2.2251,2.2206,2.2194,2.2163,2.2134,2.2114,2.2081,2.2057,2.2029,2.2015,2.2009,2.1974,2.1984,2.1971,2.1942,2.1941,2.1954,2.2008,2.2027,2.2056,2.1987,2.1987,2.1988,0,2.2374,2.2347,2.2332,2.2287,2.2278,2.2268,2.2236,2.2218,2.2182,2.2161,2.2138,2.2103,2.2087,2.2062,2.2039,2.2032,2.2018,2.1999,2.1999,2.1994,2.1966,2.2004,2.2064,2.2068,2.1992,2.1992,2.1992,0,2.2424,2.2384,2.237,2.2355,2.2302,2.2296,2.2274,2.2237,2.2221,2.2192,2.2181,2.2151,2.2135,2.2112,2.2072,2.2057,2.2054,2.2025,2.2036,2.2038,2.2036,2.2036,2.2094,2.2029,2.2028,2.2028,2.2028,0,2.2455,2.2448,2.2393,2.2384,2.2376,2.2332,2.2324,2.2297,2.2266,2.2252,2.2211,2.2199,2.2146,2.2128,2.2096,2.2083,2.2075,2.2058,2.205,2.2062,2.2064,2.2051,2.2047,2.2029,2.2029,2.2029,2.2029,0,2.2508,2.2471,2.2454,2.2407,2.2395,2.2391,2.235,2.2341,2.2311,2.2294,2.2288,2.2241,2.2217,2.2176,2.2139,2.2118,2.2112,2.2097,2.2125,2.2119,2.2134,2.2133,2.2184,2.2189,2.2121,2.2122,2.2122,0,2.2531,2.2525,2.2479,2.2468,2.2447,2.2429,2.2413,2.2371,2.2356,2.2318,2.2313,2.2287,2.2264,2.2229,2.2192,2.2165,2.2149,2.2169,2.2144,2.2158,2.215,2.2151,2.2151,2.2174,2.2175,2.2176,2.2177,0,2.2575,2.2558,2.2537,2.2511,2.2494,2.2471,2.2446,2.2439,2.2391,2.2377,2.2354,2.2336,2.2302,2.2277,2.2246,2.2222,2.2192,2.2186,2.2187,2.2198,2.2215,2.2207,2.214,2.2184,2.2183,2.2183,2.2182,2.2182,2.2613,2.2607,2.2575,2.2554,2.2532,2.251,2.25,2.2471,2.2451,2.2421,2.2398,2.2377,2.2345,2.23,2.2279,2.2262,2.2248,2.2249,2.225,2.2251,2.2256,2.2219,2.2256,2.2256,2.2256,2.2255,2.2255,0,2.2655,2.2634,2.2615,2.2583,2.2568,2.2544,2.2516,2.2504,2.2487,2.246,2.2439,2.2415,2.2392,2.2354,2.2328,2.2323,2.2309,2.2317,2.2317,2.2312,2.227,2.2272,2.233,2.233,2.233,2.233,2.233,2.233,2.2676,2.2665,2.2644,2.2623,2.26,2.2582,2.2568,2.2548,2.2527,2.2502,2.2484,2.246,2.2429,2.2402,2.238,2.237,2.2362,2.2376,2.2361,2.2322,2.2315,2.2308,2.231,2.2375,2.2375,2.2405,2.2405,2.2406]}]]